,,,PA_Meas_PMT16A,,PR_Meas_QMR101_102,,RH_Meas_QMH101,,SR_Meas_QMS101,,TA_Meas_QMH101,,GenWind,,GenWind,
date,time,status,PA,status,PR,status,RH,status,SR,status,TA,status,DirAvg,status,SpdAvg,
2009-06-25, 00:00:05,VALID,1005.27,VALID,0,VALID,88.5179,VALID,0,VALID,25.6506,VALID,33,VALID,0.676953,
2009-06-25, 00:01:05,VALID,1005.25,VALID,0,VALID,88.4035,VALID,0,VALID,25.67,VALID,17,VALID,0.11875,
2009-06-25, 00:02:05,VALID,1005.23,VALID,0,VALID,88.4035,VALID,0,VALID,25.6895,VALID,15,VALID,0.744922,
2009-06-25, 00:03:05,VALID,1005.21,VALID,0,VALID,88.3272,VALID,0,VALID,25.6681,VALID,21,VALID,1.00781,
2009-06-25, 00:04:05,VALID,1005.26,VALID,0,VALID,88.1746,VALID,0,VALID,25.6681,VALID,41,VALID,0.177344,
2009-06-25, 00:05:05,VALID,1005.24,VALID,0,VALID,88.1593,VALID,0,VALID,25.6876,VALID,85,VALID,0.458203,
2009-06-25, 00:06:05,VALID,1005.27,VALID,0,VALID,88.0525,VALID,0,VALID,25.7285,VALID,73,VALID,0.485547,
2009-06-25, 00:07:05,VALID,1005.28,VALID,0,VALID,88.022,VALID,0,VALID,25.7285,VALID,49,VALID,0.358984,
2009-06-25, 00:08:05,VALID,1005.3,VALID,0,VALID,87.961,VALID,0,VALID,25.7285,VALID,52,VALID,0.313672,
2009-06-25, 00:09:05,VALID,1005.34,VALID,0,VALID,88.0525,VALID,0,VALID,25.709,VALID,32,VALID,0.353906,
2009-06-25, 00:10:05,VALID,1005.35,VALID,0,VALID,87.9228,VALID,0,VALID,25.7071,VALID,24,VALID,0.375,
2009-06-25, 00:11:05,VALID,1005.36,VALID,0,VALID,87.9305,VALID,0,VALID,25.7655,VALID,38,VALID,0.748828,
2009-06-25, 00:12:05,VALID,1005.35,VALID,0,VALID,87.816,VALID,0,VALID,25.8259,VALID,37,VALID,0.666016,
2009-06-25, 00:13:05,VALID,1005.33,VALID,0,VALID,87.4727,VALID,0,VALID,25.8044,VALID,25,VALID,0.738672,
2009-06-25, 00:14:05,VALID,1005.29,VALID,0,VALID,87.6253,VALID,0,VALID,25.785,VALID,3,VALID,0.792188,
2009-06-25, 00:15:05,VALID,1005.3,VALID,0,VALID,87.549,VALID,0,VALID,25.7655,VALID,3,VALID,0.0855469,
2009-06-25, 00:16:05,VALID,1005.28,VALID,0,VALID,87.6787,VALID,0,VALID,25.7285,VALID,3,VALID,0.359375,
2009-06-25, 00:17:05,VALID,1005.25,VALID,0,VALID,88.022,VALID,0,VALID,25.709,VALID,359,VALID,0.776172,
2009-06-25, 00:18:05,VALID,1005.24,VALID,0,VALID,87.9686,VALID,0,VALID,25.7285,VALID,19,VALID,0.648438,
2009-06-25, 00:19:05,VALID,1005.24,VALID,0,VALID,87.8542,VALID,0,VALID,25.67,VALID,8,VALID,0.609375,
2009-06-25, 00:20:05,VALID,1005.24,VALID,0,VALID,88.2509,VALID,0,VALID,25.6097,VALID,351,VALID,0.334766,
2009-06-25, 00:21:05,VALID,1005.25,VALID,0,VALID,88.3653,VALID,0,VALID,25.5707,VALID,351,VALID,0.473437,
2009-06-25, 00:22:05,VALID,1005.23,VALID,0,VALID,88.5942,VALID,0,VALID,25.5707,VALID,351,VALID,0.295703,
2009-06-25, 00:23:05,VALID,1005.24,VALID,0,VALID,88.5179,VALID,0,VALID,25.5727,VALID,41,VALID,0.430078,
2009-06-25, 00:24:05,VALID,1005.23,VALID,0,VALID,88.64,VALID,0,VALID,25.5123,VALID,21,VALID,0.413672,
2009-06-25, 00:25:05,VALID,1005.21,VALID,0,VALID,88.8688,VALID,0,VALID,25.4928,VALID,92,VALID,0.814062,
2009-06-25, 00:26:05,VALID,1005.22,VALID,0,VALID,89.0061,VALID,0,VALID,25.5142,VALID,349,VALID,0.69375,
2009-06-25, 00:27:05,VALID,1005.23,VALID,0,VALID,88.8841,VALID,0,VALID,25.5123,VALID,1,VALID,0.549609,
2009-06-25, 00:28:05,VALID,1005.19,VALID,0,VALID,88.9833,VALID,0,VALID,25.5142,VALID,8,VALID,0.423438,
2009-06-25, 00:29:05,VALID,1005.18,VALID,0,VALID,88.8917,VALID,0,VALID,25.5318,VALID,7,VALID,0.166016,
2009-06-25, 00:30:05,VALID,1005.17,VALID,0,VALID,88.6934,VALID,0,VALID,25.5318,VALID,7,VALID,0,
2009-06-25, 00:31:05,VALID,1005.14,VALID,0,VALID,88.9375,VALID,0,VALID,25.5337,VALID,60,VALID,1.20039,
2009-06-25, 00:32:05,VALID,1005.11,VALID,0,VALID,88.7849,VALID,0,VALID,25.6116,VALID,67,VALID,0.416797,
2009-06-25, 00:33:05,VALID,1005.09,VALID,0,VALID,88.5332,VALID,0,VALID,25.6311,VALID,72,VALID,0.421484,
2009-06-25, 00:34:05,VALID,1005.1,VALID,0,VALID,88.4416,VALID,0,VALID,25.6097,VALID,71,VALID,0.294531,
2009-06-25, 00:35:05,VALID,1005.07,VALID,0,VALID,88.2814,VALID,0,VALID,25.6292,VALID,64,VALID,0.449219,
2009-06-25, 00:36:05,VALID,1005.07,VALID,0,VALID,88.4569,VALID,0,VALID,25.5707,VALID,65,VALID,0.505078,
2009-06-25, 00:37:05,VALID,1005.05,VALID,0,VALID,88.3958,VALID,0,VALID,25.5318,VALID,65,VALID,0.384766,
2009-06-25, 00:38:05,VALID,1005.03,VALID,0,VALID,88.5179,VALID,0,VALID,25.5142,VALID,65,VALID,0.268359,
2009-06-25, 00:39:05,VALID,1005,VALID,0,VALID,88.701,VALID,0,VALID,25.4753,VALID,65,VALID,0.247266,
2009-06-25, 00:40:05,VALID,1005.04,VALID,0,VALID,89.0824,VALID,0,VALID,25.4558,VALID,67,VALID,0.582422,
2009-06-25, 00:41:05,VALID,1004.98,VALID,0,VALID,89.1969,VALID,0,VALID,25.4539,VALID,36,VALID,0.7875,
2009-06-25, 00:42:05,VALID,1004.98,VALID,0,VALID,89.0977,VALID,0,VALID,25.4928,VALID,43,VALID,0.311328,
2009-06-25, 00:43:05,VALID,1004.98,VALID,0,VALID,88.9451,VALID,0,VALID,25.4928,VALID,21,VALID,0.669922,
2009-06-25, 00:44:05,VALID,1004.99,VALID,0,VALID,88.907,VALID,0,VALID,25.4948,VALID,21,VALID,0.412891,
2009-06-25, 00:45:05,VALID,1004.97,VALID,0,VALID,88.9146,VALID,0.100563,VALID,25.4753,VALID,15,VALID,0.667188,
2009-06-25, 00:46:05,VALID,1005,VALID,0,VALID,89.1511,VALID,0,VALID,25.4344,VALID,12,VALID,0.694141,
2009-06-25, 00:47:05,VALID,1004.97,VALID,0,VALID,89.1206,VALID,0,VALID,25.4169,VALID,26,VALID,0.430078,
2009-06-25, 00:48:05,VALID,1004.99,VALID,0,VALID,89.1816,VALID,0,VALID,25.3779,VALID,43,VALID,0.558984,
2009-06-25, 00:49:05,VALID,1004.97,VALID,0,VALID,89.441,VALID,0,VALID,25.3565,VALID,15,VALID,0.560547,
2009-06-25, 00:50:05,VALID,1004.95,VALID,0,VALID,89.441,VALID,0,VALID,25.4539,VALID,49,VALID,0.517969,
2009-06-25, 00:51:05,VALID,1004.97,VALID,0,VALID,89.2198,VALID,0.100563,VALID,25.4344,VALID,49,VALID,0.299219,
2009-06-25, 00:52:05,VALID,1004.93,VALID,0,VALID,89.3723,VALID,0,VALID,25.4539,VALID,72,VALID,1.34063,
2009-06-25, 00:53:05,VALID,1004.92,VALID,0,VALID,89.235,VALID,0,VALID,25.5337,VALID,70,VALID,0.257422,
2009-06-25, 00:54:05,VALID,1004.91,VALID,0,VALID,89.0061,VALID,0,VALID,25.5318,VALID,70,VALID,0.388281,
2009-06-25, 00:55:05,VALID,1004.92,VALID,0,VALID,88.9222,VALID,0,VALID,25.5337,VALID,70,VALID,0.319922,
2009-06-25, 00:56:05,VALID,1004.88,VALID,0,VALID,88.9985,VALID,0,VALID,25.5318,VALID,42,VALID,0.572266,
2009-06-25, 00:57:05,VALID,1004.87,VALID,0,VALID,88.9299,VALID,0.100563,VALID,25.5513,VALID,27,VALID,0.932422,
2009-06-25, 00:58:05,VALID,1004.89,VALID,0,VALID,88.8993,VALID,0.100563,VALID,25.5707,VALID,29,VALID,0.766406,
2009-06-25, 00:59:05,VALID,1004.92,VALID,0,VALID,88.7773,VALID,0,VALID,25.6116,VALID,41,VALID,0.605859,
2009-06-25, 01:00:05,VALID,1004.93,VALID,0,VALID,88.7086,VALID,0.100563,VALID,25.6097,VALID,51,VALID,0.588672,
2009-06-25, 01:01:05,VALID,1004.92,VALID,0,VALID,88.4416,VALID,0,VALID,25.5921,VALID,56,VALID,0.18125,
2009-06-25, 01:02:05,VALID,1004.93,VALID,0,VALID,88.495,VALID,0,VALID,25.5727,VALID,56,VALID,0.251953,
2009-06-25, 01:03:05,VALID,1004.94,VALID,0,VALID,88.8841,VALID,0,VALID,25.5513,VALID,21,VALID,0.827734,
2009-06-25, 01:04:04,VALID,1004.93,VALID,0,VALID,89.0595,VALID,0,VALID,25.5532,VALID,28,VALID,0.751953,
2009-06-25, 01:05:04,VALID,1004.93,VALID,0,VALID,88.9146,VALID,0,VALID,25.6116,VALID,29,VALID,0.670313,
2009-06-25, 01:06:04,VALID,1004.9,VALID,0,VALID,88.8765,VALID,0,VALID,25.6097,VALID,53,VALID,0.5875,
2009-06-25, 01:07:04,VALID,1004.89,VALID,0,VALID,88.7239,VALID,0,VALID,25.6486,VALID,70,VALID,0.179297,
2009-06-25, 01:08:04,VALID,1004.89,VALID,0,VALID,88.5713,VALID,0,VALID,25.6292,VALID,70,VALID,0.239453,
2009-06-25, 01:09:04,VALID,1004.89,VALID,0,VALID,88.5026,VALID,0,VALID,25.6097,VALID,70,VALID,0.0046875,
2009-06-25, 01:10:04,VALID,1004.87,VALID,0,VALID,88.5789,VALID,0,VALID,25.6116,VALID,70,VALID,0.0714844,
2009-06-25, 01:11:04,VALID,1004.86,VALID,0,VALID,88.5179,VALID,0,VALID,25.5513,VALID,70,VALID,0,
2009-06-25, 01:12:04,VALID,1004.85,VALID,0,VALID,88.6628,VALID,0,VALID,25.5532,VALID,70,VALID,0.124219,
2009-06-25, 01:13:04,VALID,1004.85,VALID,0,VALID,88.8917,VALID,0,VALID,25.5513,VALID,90,VALID,0.469922,
2009-06-25, 01:14:04,VALID,1004.83,VALID,0,VALID,88.907,VALID,0,VALID,25.5707,VALID,77,VALID,0.187891,
2009-06-25, 01:15:04,VALID,1004.8,VALID,0,VALID,88.8688,VALID,0,VALID,25.5727,VALID,63,VALID,0.325,
2009-06-25, 01:16:04,VALID,1004.79,VALID,0,VALID,88.9375,VALID,0.100563,VALID,25.5727,VALID,59,VALID,0.812891,
2009-06-25, 01:17:04,VALID,1004.78,VALID,0,VALID,88.8459,VALID,0.100563,VALID,25.5902,VALID,40,VALID,0.141797,
2009-06-25, 01:18:04,VALID,1004.73,VALID,0,VALID,88.8307,VALID,0,VALID,25.6311,VALID,86,VALID,0.990234,
2009-06-25, 01:19:04,VALID,1004.72,VALID,0,VALID,88.6094,VALID,0,VALID,25.6681,VALID,86,VALID,0.820313,
2009-06-25, 01:20:04,VALID,1004.69,VALID,0,VALID,88.4111,VALID,0,VALID,25.6681,VALID,41,VALID,0.532422,
2009-06-25, 01:21:04,VALID,1004.69,VALID,0,VALID,88.2967,VALID,0,VALID,25.6876,VALID,34,VALID,0.433984,
2009-06-25, 01:22:04,VALID,1004.67,VALID,0,VALID,88.1822,VALID,0,VALID,25.6876,VALID,57,VALID,0.424609,
2009-06-25, 01:23:04,VALID,1004.7,VALID,0,VALID,88.167,VALID,0,VALID,25.709,VALID,67,VALID,0.794922,
2009-06-25, 01:24:04,VALID,1004.68,VALID,0,VALID,88.0678,VALID,0,VALID,25.7285,VALID,77,VALID,0.416797,
2009-06-25, 01:25:04,VALID,1004.7,VALID,0,VALID,88.0831,VALID,0,VALID,25.6876,VALID,15,VALID,0.392969,
2009-06-25, 01:26:04,VALID,1004.69,VALID,0,VALID,87.9991,VALID,0,VALID,25.7285,VALID,18,VALID,0.628516,
2009-06-25, 01:27:04,VALID,1004.69,VALID,0,VALID,87.9686,VALID,0,VALID,25.7071,VALID,56,VALID,0.474609,
2009-06-25, 01:28:04,VALID,1004.7,VALID,0,VALID,87.9152,VALID,0,VALID,25.7674,VALID,96,VALID,1.05742,
2009-06-25, 01:29:04,VALID,1004.71,VALID,0,VALID,87.8008,VALID,0,VALID,25.7869,VALID,82,VALID,1.21758,
2009-06-25, 01:30:04,VALID,1004.69,VALID,0,VALID,87.5338,VALID,0,VALID,25.8259,VALID,84,VALID,0.315625,
2009-06-25, 01:31:04,VALID,1004.75,VALID,0,VALID,87.3049,VALID,0,VALID,25.746,VALID,74,VALID,0.546094,
2009-06-25, 01:32:04,VALID,1004.72,VALID,0,VALID,87.5567,VALID,0.100563,VALID,25.6876,VALID,55,VALID,0.185547,
2009-06-25, 01:33:04,VALID,1004.7,VALID,0,VALID,87.7932,VALID,0,VALID,25.6292,VALID,16,VALID,0.555469,
2009-06-25, 01:34:04,VALID,1004.68,VALID,0,VALID,88.0296,VALID,0.100563,VALID,25.6116,VALID,27,VALID,0.377734,
2009-06-25, 01:35:04,VALID,1004.65,VALID,0,VALID,88.1975,VALID,0,VALID,25.5902,VALID,48,VALID,0.241797,
2009-06-25, 01:36:04,VALID,1004.66,VALID,0,VALID,88.2509,VALID,0,VALID,25.5921,VALID,41,VALID,0.555859,
2009-06-25, 01:37:04,VALID,1004.63,VALID,0,VALID,88.3806,VALID,0,VALID,25.5727,VALID,19,VALID,0.861328,
2009-06-25, 01:38:04,VALID,1004.63,VALID,0,VALID,88.4187,VALID,0,VALID,25.5318,VALID,30,VALID,0.542969,
2009-06-25, 01:39:04,VALID,1004.59,VALID,0,VALID,88.5332,VALID,0,VALID,25.5921,VALID,50,VALID,0.948047,
2009-06-25, 01:40:04,VALID,1004.6,VALID,0,VALID,88.2738,VALID,0,VALID,25.5707,VALID,13,VALID,0.71875,
2009-06-25, 01:41:04,VALID,1004.62,VALID,0,VALID,88.3729,VALID,0,VALID,25.5707,VALID,26,VALID,0.568359,
2009-06-25, 01:42:04,VALID,1004.58,VALID,0,VALID,88.2661,VALID,0,VALID,25.6116,VALID,360,VALID,0.807422,
2009-06-25, 01:43:04,VALID,1004.6,VALID,0,VALID,88.3195,VALID,0,VALID,25.5727,VALID,30,VALID,0.504297,
2009-06-25, 01:44:04,VALID,1004.59,VALID,0,VALID,88.4874,VALID,0,VALID,25.5902,VALID,19,VALID,0.903125,
2009-06-25, 01:45:04,VALID,1004.59,VALID,0,VALID,88.1899,VALID,0.100563,VALID,25.5902,VALID,22,VALID,0.469141,
2009-06-25, 01:46:04,VALID,1004.56,VALID,0,VALID,88.2127,VALID,0,VALID,25.5902,VALID,11,VALID,0.751172,
2009-06-25, 01:47:04,VALID,1004.58,VALID,0,VALID,88.2814,VALID,0,VALID,25.5902,VALID,23,VALID,0.594531,
2009-06-25, 01:48:04,VALID,1004.57,VALID,0,VALID,88.3043,VALID,0,VALID,25.5921,VALID,16,VALID,0.744922,
2009-06-25, 01:49:04,VALID,1004.54,VALID,0,VALID,88.3653,VALID,0,VALID,25.6292,VALID,43,VALID,1.34609,
2009-06-25, 01:50:04,VALID,1004.54,VALID,0,VALID,88.0907,VALID,0,VALID,25.6506,VALID,29,VALID,0.794922,
2009-06-25, 01:51:04,VALID,1004.52,VALID,0,VALID,87.9534,VALID,0.100563,VALID,25.6681,VALID,22,VALID,0.641016,
2009-06-25, 01:52:04,VALID,1004.5,VALID,0,VALID,87.9228,VALID,0,VALID,25.6681,VALID,41,VALID,0.277344,
2009-06-25, 01:53:04,VALID,1004.49,VALID,0,VALID,87.9076,VALID,0,VALID,25.6486,VALID,43,VALID,0.50625,
2009-06-25, 01:54:04,VALID,1004.44,VALID,0,VALID,87.8542,VALID,0,VALID,25.6486,VALID,59,VALID,0.0957031,
2009-06-25, 01:55:04,VALID,1004.47,VALID,0,VALID,87.8923,VALID,0,VALID,25.6292,VALID,63,VALID,0.576172,
2009-06-25, 01:56:04,VALID,1004.46,VALID,0,VALID,87.9381,VALID,0.100563,VALID,25.6506,VALID,71,VALID,0.299609,
2009-06-25, 01:57:04,VALID,1004.41,VALID,0,VALID,87.8618,VALID,0,VALID,25.6311,VALID,71,VALID,0.274219,
2009-06-25, 01:58:04,VALID,1004.45,VALID,0,VALID,88.0144,VALID,0,VALID,25.6097,VALID,17,VALID,0.642187,
2009-06-25, 01:59:04,VALID,1004.4,VALID,0,VALID,87.8771,VALID,0,VALID,25.6292,VALID,350,VALID,0.401172,
2009-06-25, 02:00:04,VALID,1004.4,VALID,0,VALID,87.7474,VALID,0,VALID,25.6097,VALID,10,VALID,0.447656,
2009-06-25, 02:01:04,VALID,1004.39,VALID,0,VALID,87.7474,VALID,0,VALID,25.6311,VALID,10,VALID,0.376953,
2009-06-25, 02:02:04,VALID,1004.41,VALID,0,VALID,87.8694,VALID,0.100563,VALID,25.5532,VALID,10,VALID,0.383594,
2009-06-25, 02:03:04,VALID,1004.39,VALID,0,VALID,88.0907,VALID,0,VALID,25.5123,VALID,11,VALID,0.535156,
2009-06-25, 02:04:04,VALID,1004.36,VALID,0,VALID,87.9305,VALID,0,VALID,25.5337,VALID,22,VALID,0.361328,
2009-06-25, 02:05:04,VALID,1004.35,VALID,0,VALID,88.1517,VALID,0,VALID,25.5142,VALID,22,VALID,0.268359,
2009-06-25, 02:06:04,VALID,1004.38,VALID,0,VALID,88.1365,VALID,0,VALID,25.4948,VALID,22,VALID,0.152734,
2009-06-25, 02:07:04,VALID,1004.35,VALID,0,VALID,88.1365,VALID,0,VALID,25.4753,VALID,22,VALID,0.327734,
2009-06-25, 02:08:04,VALID,1004.37,VALID,0,VALID,88.3424,VALID,0,VALID,25.4149,VALID,15,VALID,0.482031,
2009-06-25, 02:09:04,VALID,1004.36,VALID,0,VALID,88.3272,VALID,0.100563,VALID,25.3955,VALID,46,VALID,0.392969,
2009-06-25, 02:10:04,VALID,1004.34,VALID,0,VALID,88.5103,VALID,0,VALID,25.376,VALID,72,VALID,0.355859,
2009-06-25, 02:11:04,VALID,1004.33,VALID,0,VALID,88.7468,VALID,0.100563,VALID,25.3955,VALID,55,VALID,0.826563,
2009-06-25, 02:12:04,VALID,1004.36,VALID,0,VALID,88.5637,VALID,0,VALID,25.4558,VALID,71,VALID,0.802344,
2009-06-25, 02:13:04,VALID,1004.34,VALID,0,VALID,88.5255,VALID,0,VALID,25.4753,VALID,30,VALID,1.17344,
2009-06-25, 02:14:04,VALID,1004.33,VALID,0,VALID,88.3119,VALID,0,VALID,25.4928,VALID,79,VALID,1.21602,
2009-06-25, 02:15:04,VALID,1004.33,VALID,0,VALID,87.9762,VALID,0,VALID,25.6116,VALID,41,VALID,0.294141,
2009-06-25, 02:16:04,VALID,1004.34,VALID,0,VALID,87.7016,VALID,0,VALID,25.6097,VALID,41,VALID,0.576172,
2009-06-25, 02:17:04,VALID,1004.31,VALID,0,VALID,87.6863,VALID,0,VALID,25.6097,VALID,21,VALID,1.4793,
2009-06-25, 02:18:04,VALID,1004.29,VALID,0,VALID,87.4499,VALID,0,VALID,25.6895,VALID,55,VALID,0.845312,
2009-06-25, 02:19:04,VALID,1004.27,VALID,0,VALID,87.1294,VALID,0.100563,VALID,25.746,VALID,54,VALID,0.541406,
2009-06-25, 02:20:04,VALID,1004.24,VALID,0,VALID,86.8777,VALID,0,VALID,25.7869,VALID,50,VALID,0.657031,
2009-06-25, 02:21:04,VALID,1004.22,VALID,0,VALID,86.8853,VALID,0,VALID,25.746,VALID,72,VALID,0.432422,
2009-06-25, 02:22:04,VALID,1004.22,VALID,0,VALID,86.9464,VALID,0,VALID,25.7265,VALID,31,VALID,0.613672,
2009-06-25, 02:23:04,VALID,1004.19,VALID,0,VALID,86.9692,VALID,0,VALID,25.7265,VALID,72,VALID,0.562891,
2009-06-25, 02:24:04,VALID,1004.17,VALID,0,VALID,87.0226,VALID,0,VALID,25.7071,VALID,65,VALID,0.820313,
2009-06-25, 02:25:04,VALID,1004.14,VALID,0,VALID,86.9616,VALID,0,VALID,25.7285,VALID,71,VALID,0.190625,
2009-06-25, 02:26:04,VALID,1004.12,VALID,0,VALID,87.0989,VALID,0,VALID,25.7071,VALID,50,VALID,1.0375,
2009-06-25, 02:27:04,VALID,1004.09,VALID,0,VALID,86.9998,VALID,0,VALID,25.7265,VALID,22,VALID,0.913672,
2009-06-25, 02:28:04,VALID,1004.09,VALID,0,VALID,86.809,VALID,0.100563,VALID,25.7674,VALID,54,VALID,0.445703,
2009-06-25, 02:29:04,VALID,1004.08,VALID,0,VALID,86.7785,VALID,0,VALID,25.746,VALID,32,VALID,0.352734,
2009-06-25, 02:30:04,VALID,1004.06,VALID,0,VALID,86.809,VALID,0,VALID,25.7674,VALID,30,VALID,0.939062,
2009-06-25, 02:31:04,VALID,1004.06,VALID,0,VALID,86.7556,VALID,0,VALID,25.748,VALID,17,VALID,0.892187,
2009-06-25, 02:32:04,VALID,1004.04,VALID,0,VALID,86.8014,VALID,0,VALID,25.7285,VALID,65,VALID,0.403516,
2009-06-25, 02:33:04,VALID,1004.02,VALID,0,VALID,86.8624,VALID,0,VALID,25.709,VALID,42,VALID,0.781641,
2009-06-25, 02:34:04,VALID,1004.02,VALID,0,VALID,86.809,VALID,0.100563,VALID,25.7071,VALID,76,VALID,1.3125,
2009-06-25, 02:35:04,VALID,1004,VALID,0,VALID,86.6793,VALID,0,VALID,25.7071,VALID,73,VALID,0.421484,
2009-06-25, 02:36:04,VALID,1003.97,VALID,0,VALID,86.6259,VALID,0,VALID,25.7071,VALID,51,VALID,0.339063,
2009-06-25, 02:37:04,VALID,1003.99,VALID,0,VALID,86.6336,VALID,0,VALID,25.709,VALID,71,VALID,0.409766,
2009-06-25, 02:38:04,VALID,1003.97,VALID,0,VALID,86.7556,VALID,0,VALID,25.6681,VALID,56,VALID,0.501953,
2009-06-25, 02:39:04,VALID,1003.98,VALID,0,VALID,86.8548,VALID,0.100563,VALID,25.6292,VALID,66,VALID,0.628516,
2009-06-25, 02:40:04,VALID,1003.95,VALID,0,VALID,86.8472,VALID,0,VALID,25.6486,VALID,79,VALID,0.291016,
2009-06-25, 02:41:04,VALID,1003.94,VALID,0,VALID,86.8472,VALID,0,VALID,25.6486,VALID,58,VALID,0.585156,
2009-06-25, 02:42:04,VALID,1003.97,VALID,0,VALID,86.8395,VALID,0,VALID,25.6292,VALID,39,VALID,0.891406,
2009-06-25, 02:43:04,VALID,1003.95,VALID,0,VALID,86.7861,VALID,0,VALID,25.6292,VALID,54,VALID,0.685156,
2009-06-25, 02:44:04,VALID,1003.92,VALID,0,VALID,86.7327,VALID,0,VALID,25.6506,VALID,54,VALID,0.249219,
2009-06-25, 02:45:04,VALID,1003.96,VALID,0,VALID,86.8014,VALID,0.100563,VALID,25.6292,VALID,59,VALID,1.25391,
2009-06-25, 02:46:04,VALID,1003.93,VALID,0,VALID,86.7099,VALID,0,VALID,25.6292,VALID,35,VALID,0.596875,
2009-06-25, 02:47:04,VALID,1003.93,VALID,0,VALID,86.7175,VALID,0,VALID,25.6292,VALID,96,VALID,0.717578,
2009-06-25, 02:48:04,VALID,1003.95,VALID,0,VALID,86.6259,VALID,0,VALID,25.6292,VALID,99,VALID,0.210547,
2009-06-25, 02:49:04,VALID,1003.93,VALID,0,VALID,86.5115,VALID,0,VALID,25.6486,VALID,20,VALID,0.903906,
2009-06-25, 02:50:04,VALID,1003.95,VALID,0,VALID,86.4352,VALID,0.100563,VALID,25.67,VALID,71,VALID,0.332031,
2009-06-25, 02:51:04,VALID,1003.97,VALID,0,VALID,86.4276,VALID,0.100563,VALID,25.6681,VALID,57,VALID,0.927344,
2009-06-25, 02:52:04,VALID,1003.94,VALID,0,VALID,86.3513,VALID,0.100563,VALID,25.6486,VALID,56,VALID,0.219141,
2009-06-25, 02:53:04,VALID,1003.95,VALID,0,VALID,86.4657,VALID,0,VALID,25.6097,VALID,65,VALID,0.816016,
2009-06-25, 02:54:04,VALID,1003.97,VALID,0,VALID,86.3132,VALID,0.100563,VALID,25.67,VALID,35,VALID,0.451562,
2009-06-25, 02:55:04,VALID,1003.95,VALID,0,VALID,86.275,VALID,0.100563,VALID,25.6486,VALID,27,VALID,0.833984,
2009-06-25, 02:56:04,VALID,1003.96,VALID,0,VALID,86.275,VALID,0,VALID,25.6292,VALID,61,VALID,0.0367187,
2009-06-25, 02:57:04,VALID,1003.97,VALID,0,VALID,86.2826,VALID,0.100563,VALID,25.6311,VALID,61,VALID,0.140625,
2009-06-25, 02:58:04,VALID,1003.98,VALID,0,VALID,86.4657,VALID,0,VALID,25.5707,VALID,61,VALID,0.183594,
2009-06-25, 02:59:04,VALID,1003.98,VALID,0,VALID,86.6946,VALID,0,VALID,25.5142,VALID,61,VALID,0.306641,
2009-06-25, 03:00:04,VALID,1003.96,VALID,0,VALID,86.9845,VALID,0,VALID,25.4539,VALID,61,VALID,0.526953,
2009-06-25, 03:01:04,VALID,1003.95,VALID,0,VALID,87.1752,VALID,0,VALID,25.4344,VALID,76,VALID,1.30625,
2009-06-25, 03:02:04,VALID,1003.96,VALID,0,VALID,87.2057,VALID,0,VALID,25.4558,VALID,57,VALID,0.567187,
2009-06-25, 03:03:04,VALID,1003.97,VALID,0,VALID,87.2134,VALID,0,VALID,25.4344,VALID,61,VALID,0.157813,
2009-06-25, 03:04:04,VALID,1003.97,VALID,0,VALID,87.2439,VALID,0,VALID,25.4948,VALID,93,VALID,0.464844,
2009-06-25, 03:05:04,VALID,1003.98,VALID,0,VALID,87.1066,VALID,0.100563,VALID,25.4928,VALID,93,VALID,0.00195313,
2009-06-25, 03:06:04,VALID,1003.97,VALID,0,VALID,87.1218,VALID,0,VALID,25.4928,VALID,93,VALID,0.0410156,
2009-06-25, 03:07:04,VALID,1004.01,VALID,0,VALID,87.076,VALID,0,VALID,25.5337,VALID,93,VALID,0.521875,
2009-06-25, 03:08:04,VALID,1003.99,VALID,0,VALID,87.0455,VALID,0.100563,VALID,25.5513,VALID,91,VALID,0.565625,
2009-06-25, 03:09:04,VALID,1003.99,VALID,0,VALID,87.0226,VALID,0.100563,VALID,25.5513,VALID,91,VALID,0.44375,
2009-06-25, 03:10:04,VALID,1004.02,VALID,0,VALID,86.9845,VALID,0,VALID,25.5727,VALID,91,VALID,0.607813,
2009-06-25, 03:11:04,VALID,1004.04,VALID,0,VALID,87.0303,VALID,0,VALID,25.5921,VALID,113,VALID,0.763672,
2009-06-25, 03:12:04,VALID,1004.09,VALID,0,VALID,87.0532,VALID,0,VALID,25.5707,VALID,107,VALID,0.921484,
2009-06-25, 03:13:04,VALID,1004.12,VALID,0,VALID,86.6565,VALID,0,VALID,25.709,VALID,85,VALID,1.73594,
2009-06-25, 03:14:04,VALID,1004.14,VALID,0,VALID,86.336,VALID,0,VALID,25.7869,VALID,135,VALID,1.32891,
2009-06-25, 03:15:04,VALID,1004.12,VALID,0,VALID,85.6418,VALID,0,VALID,25.785,VALID,117,VALID,1.39414,
2009-06-25, 03:16:04,VALID,1004.09,VALID,0,VALID,84.856,VALID,0,VALID,25.8434,VALID,115,VALID,2.15508,
2009-06-25, 03:17:04,VALID,1004.08,VALID,0,VALID,84.5433,VALID,0,VALID,25.8648,VALID,113,VALID,1.23281,
2009-06-25, 03:18:04,VALID,1004.08,VALID,0,VALID,83.9635,VALID,0,VALID,25.8648,VALID,113,VALID,1.36953,
2009-06-25, 03:19:04,VALID,1004.03,VALID,0,VALID,83.3684,VALID,0,VALID,25.8843,VALID,91,VALID,0.936328,
2009-06-25, 03:20:04,VALID,1004.03,VALID,0,VALID,83.0404,VALID,0,VALID,25.9232,VALID,72,VALID,0.671094,
2009-06-25, 03:21:04,VALID,1004.03,VALID,0,VALID,82.9412,VALID,0.100563,VALID,25.9018,VALID,103,VALID,0.838672,
2009-06-25, 03:22:04,VALID,1004.01,VALID,0,VALID,82.102,VALID,0,VALID,25.8843,VALID,85,VALID,0.757422,
2009-06-25, 03:23:04,VALID,1003.99,VALID,0,VALID,82.0715,VALID,0.100563,VALID,25.8823,VALID,80,VALID,0.688672,
2009-06-25, 03:24:04,VALID,1004.02,VALID,0,VALID,82.5445,VALID,0.100563,VALID,25.8648,VALID,67,VALID,0.367188,
2009-06-25, 03:25:04,VALID,1004.01,VALID,0,VALID,82.0715,VALID,0.100563,VALID,25.785,VALID,62,VALID,0.415234,
2009-06-25, 03:26:04,VALID,1003.98,VALID,0,VALID,81.9189,VALID,0,VALID,25.7265,VALID,81,VALID,0.746094,
2009-06-25, 03:27:04,VALID,1004.02,VALID,0,VALID,81.9647,VALID,0,VALID,25.709,VALID,67,VALID,0.637109,
2009-06-25, 03:28:04,VALID,1003.98,VALID,0,VALID,82.4758,VALID,0,VALID,25.6292,VALID,59,VALID,0.203906,
2009-06-25, 03:29:04,VALID,1004,VALID,0,VALID,82.8039,VALID,0,VALID,25.6116,VALID,59,VALID,0.407422,
2009-06-25, 03:30:04,VALID,1003.99,VALID,0,VALID,83.0785,VALID,0,VALID,25.5337,VALID,52,VALID,0.235547,
2009-06-25, 03:31:04,VALID,1003.95,VALID,0,VALID,82.1554,VALID,0,VALID,25.4344,VALID,14,VALID,1.10312,
2009-06-25, 03:32:04,VALID,1003.98,VALID,0,VALID,82.514,VALID,0,VALID,25.4363,VALID,84,VALID,0.380078,
2009-06-25, 03:33:04,VALID,1003.98,VALID,0,VALID,82.7657,VALID,0,VALID,25.3974,VALID,41,VALID,0.776172,
2009-06-25, 03:34:04,VALID,1003.98,VALID,0,VALID,83.0251,VALID,0,VALID,25.3565,VALID,30,VALID,0.670703,
2009-06-25, 03:35:04,VALID,1003.97,VALID,0,VALID,83.1014,VALID,0,VALID,25.3176,VALID,27,VALID,1.01016,
2009-06-25, 03:36:04,VALID,1003.98,VALID,0,VALID,83.1624,VALID,0,VALID,25.2806,VALID,26,VALID,0.944922,
2009-06-25, 03:37:04,VALID,1003.95,VALID,0,VALID,83.8414,VALID,0,VALID,25.2397,VALID,41,VALID,0.692578,
2009-06-25, 03:38:04,VALID,1003.93,VALID,0,VALID,84.0779,VALID,0,VALID,25.2027,VALID,18,VALID,0.689844,
2009-06-25, 03:39:04,VALID,1003.95,VALID,0,VALID,83.9558,VALID,0,VALID,25.1442,VALID,18,VALID,0.368359,
2009-06-25, 03:40:04,VALID,1003.96,VALID,0,VALID,84.3983,VALID,0,VALID,25.1053,VALID,18,VALID,0.49375,
2009-06-25, 03:41:04,VALID,1003.94,VALID,0,VALID,84.4364,VALID,0,VALID,25.0469,VALID,18,VALID,0.0273438,
2009-06-25, 03:42:04,VALID,1003.93,VALID,0,VALID,84.2991,VALID,0,VALID,25.0079,VALID,34,VALID,0.140234,
2009-06-25, 03:43:04,VALID,1003.92,VALID,0,VALID,83.8872,VALID,0,VALID,24.9885,VALID,90,VALID,0.178516,
2009-06-25, 03:44:04,VALID,1003.96,VALID,0,VALID,84.2,VALID,0,VALID,24.9885,VALID,90,VALID,0.00351562,